Starlink 30989

operational
NORAD ID: 58510 Int'l Des: 2023-191 Owner: SPXS Country: US Constellation: starlink
LEOCIRCULAR

关于 Starlink 30989

正在加载描述...

实时位置

正在加载3D地球...

即将过境

高度历史

Altitude vs Time

uPlot chart will show altitude changes over time

两行轨道根数

1 58510U 23191C 25257.23548789 .00000014 00000-0 16090-4 0 9997
2 58510 43.0042 345.1618 0001363 274.6032 85.4655 15.02537319 98926
Epoch: Sep 14, 2025 • Age: 30 hours

当前状态

高度 559.6 km
速度 7.58 km/s
星下点 -4.55°S, 0.72°E
发射日期 Dec 7, 2023
运行时间 1.7 years
类型 internet

技术详情

分类 Payload
质量 730.00 kg
干质量 700.00 kg
总质量 730.00 kg
长度 0.30 m
直径 4.10 m
跨度 29.00 m
形状 Box + pan
制造商 SPXS
平台类型 Starlink V2M
阶段状态 In Orbit
所有者/国家 SPXS/US

大型星座

Loading constellations...